STARLINK-11571, 62986

Orbit data source: Space-Track

STARLINK-11571, 62986 is a payload satellite owned by SpaceX/Seattle (US) in LEO that was launched on Tue, 11 Feb 2025 UTC via an FALCON 9 launch vehicle from the Air Force Eastern Test Range (AFETR). Payload-class satellites include a variety of spacecraft equipped with specific instruments for various scientific and technological missions. These include communications satellites like Starlink; space stations such as the ISS; scientific satellites like the Hubble; Earth observation satellites from companies like Planet Labs, Umbra, and HawkEye 360; GPS; miniature CubeSats for education and research; and military/defense satellites.

Loading next visibility...
Identifier
62986, 2025-031F
Orbit
LEO
Country
Flag of USUS
Related business
Manufacturer
SpaceX/Seattle
Mission
Operational Commercial Communications
Bus & Motor
STARLINK V2MD, Unknown motor
Mass
960 kg wet, ~910 kg dry
Launch date (UTC)
2025-02-11 (1 year ago)
Launch vehicle
FALCON 9
Launch site
Air Force Eastern Test Range (AFETR)
Object type
Payload
Rocket body
Debris
Shape & HBR
Box + 2 Pan, 18.1 m
Radar Cross Section
36.964 m², Large (>1 m²)

Expand to show TLE details & history
Last TLE update: 16 hours ago

TLE from 16 hours ago
0 STARLINK-11571
1 62986U 25031F   26171.16392281  .00163181  00000-0  12497-2 0  9996
2 62986  43.0009 103.3572 0001742 274.1984  85.8685 15.70853277 78863
Epoch: 2026-06-20T03:56Z
TLE epoch observation values (Epoch: 2026-06-20T03:56:02.930Z)
Latitude
-0°
Longitude
135.96251°
Altitude
356.144 km
Speed
7.697 km/s
True Right ascension
06h 53m 25s
True Declination
0° 00' 00"
Sunlit
Object was in daylight at epoch
Visualization orbit readout
Latitude
Unknown
Longitude
Unknown
Altitude
Unknown
Speed
Unknown
Apparent Right ascension
Unknown
Apparent Declination
Unknown
Sunlit
N/A
Visualization observer readout
Local Sidereal Time
07:15:55
Azimuth
Unknown
Elevation
Unknown
Doppler factor
Unknown
Orbital elements
Apogee altitude
359.612 km
Perigee altitude
357.265 km
Semi-major axis
6,736.576 km
Eccentricity
0.00017
Inclination
43.0009°
RAAN
103.3572°
Arg. of periapsis
274.1984°
True anomaly
85.88841°
Mean anomaly
85.8685°
Eccentric anomaly
85.87846°
Mean motion
3.9254 °/min
Orbital period
91.71 mins
BSTAR
0.0012497
Loading maneuver chart data...
Computing Atmospheric mass density...
Loading historical data...
Loading historical data...
Loading historical data...
Loading historical data...
Loading historical data...
Loading historical data...
Loading historical data...

Documentation

Showing up to 5 results
|